Location: Anahuac Spring
(32.9845°N, 116.6628°W)
Time: 16:35:21
(UTC+00:00)

Daily predictions for brighter satellites

Satellite Brightness Start Highest point End
(mag) Time Altitude Azimuth Time Altitude Azimuth Time Altitude Azimuth
SJ 16-02 3.7 12:01:13 10° SSE 12:04:34 22° E 12:07:55 10° NE
SL-4 R/B 3.4 12:28:18 30° E 12:28:18 30° E 12:30:33 10° ENE
Cosmos 2279 Rocket 4.3 12:26:08 10° N 12:32:17 63° E 12:38:24 10° SSE
Cosmos 836 Rocket 4.4 12:31:50 62° N 12:32:44 86° ENE 12:37:55 10° SSE
Cosmos 1151 Rocket 2.9 12:37:31 85° ENE 12:37:34 85° E 12:41:55 10° S
H-2A R/B (2) 3.3 12:36:46 25° SSW 12:38:52 40° SSE 12:51:13 10° E
CZ-2C R/B 3.7 12:34:33 10° SE 12:39:43 44° ENE 12:44:47 10° N
MOS 1-B Rocket 4.1 12:36:21 10° SSE 12:42:42 74° ENE 12:48:24 10° N
BREEZE-M DEB 3.1 12:44:32 51° NE 12:44:32 51° NE 12:48:34 10° NE
BREEZE-M DEB (TANK) 3.6 12:47:05 48° WNW 12:48:19 69° SW 12:52:34 10° SE
Cosmos 1777 Rocket 3.9 12:44:21 10° SSW 12:49:32 87° ESE 12:54:47 10° NNE
Cosmos 1634 Rocket 4.1 12:51:51 31° NW 12:54:31 49° W 13:00:24 10° SSW
Meteor 2-8 Rocket 4.5 12:51:36 10° N 12:57:45 81° E 13:03:49 10° S
BREEZE-M DEB (TANK) 4.0 12:47:51 21° NW 12:59:22 88° SW 13:04:17 10° SE
Meteor 1-10 Rocket 4.2 12:56:21 10° N 13:01:55 81° E 13:07:29 10° S
CZ-4B R/B 4.0 12:57:33 10° N 13:02:02 84° WNW 13:06:26 10° SSW
Cosmos 1328 Rocket 3.4 13:04:49 27° NNW 13:07:00 61° W 13:11:14 10° S
SL-19 R/B 4.2 13:03:24 10° S 13:08:58 74° WSW 13:14:34 10° NNW
SAR-Lupe-3 4.5 13:06:13 10° N 13:09:46 61° WNW 13:13:18 10° SSW
CZ-2C R/B 4.2 13:06:28 10° NNE 13:11:18 46° E 13:16:23 10° S
ASTRO E2 4.4 13:09:10 12° SW 13:12:11 28° SSE 13:15:38 10° E
Lacrosse 5 3.3 13:08:15 10° S 13:12:57 39° ESE 13:17:40 10° NE
Envisat 3.1 13:09:05 10° N 13:13:58 49° WNW 13:18:51 10° SSW
Centaur D-1A AC-35 3.6 13:12:42 13° SW 13:15:57 30° S 13:19:19 10° ESE
SL-8 R/B 3.8 13:16:15 25° NW 13:19:01 70° NE 13:23:46 10° ESE
COSMO-SKYMED 1 2.5 13:15:57 10° S 13:20:15 72° W 13:24:35 10° NNW
FALCON 9 R/B 4.1 13:03:47 22° WNW 13:21:55 85° SSW 13:28:48 10° ESE
ATLAS 3B R/B 2.7 13:17:06 10° SW 13:23:22 51° NW 13:29:54 10° NNE
Landsat 5 3.6 13:20:24 10° SSE 13:24:54 89° WSW 13:29:23 10° NNW
ATLAS 5 CENTAUR R/B 2.9 13:27:14 18° NNW 13:27:14 18° NNW 13:29:19 10° N
SJ-7 4.5 13:22:22 10° NNE 13:26:31 81° ESE 13:30:35 10° S
Cosmos 1408 Rocket 4.0 13:23:15 10° SSW 13:27:13 36° W 13:31:13 10° NNW
CZ-4C R/B 3.1 13:24:54 10° SSE 13:28:00 64° ENE 13:31:05 10° N
NOAA 11 4.2 13:22:42 10° NNE 13:28:13 89° WNW 13:33:43 10° SSW
Cosmos 1340 Rocket 3.0 13:32:08 10° SSW 13:35:56 48° W 13:39:48 10° N
Cosmos 1743 Rocket 3.6 13:34:36 10° SSW 13:38:54 56° W 13:43:10 10° N
Cosmos 2026 Rocket 4.4 13:33:24 10° S 13:39:42 71° E 13:45:57 10° N
SJ 16-02 2.3 13:39:22 10° WSW 13:42:57 24° WNW 13:46:32 10° NNW
Cosmos 2195 Rocket 4.4 13:38:13 10° S 13:44:21 87° W 13:50:28 10° N
Alouette 2 Rocket 3.8 13:40:51 10° N 13:44:22 62° E 13:48:27 10° SSE
CZ-4B R/B 2.5 13:42:49 10° N 13:46:25 80° WNW 13:50:06 10° SSW
OAO 2 Rocket 3.4 13:43:55 10° WSW 13:49:10 89° N 13:54:18 10° ENE
Cosmos 1515 Rocket 4.3 13:49:55 10° NNW 13:53:46 32° W 13:57:37 10° SSW
USA 215 4.3 13:47:54 10° ESE 13:53:49 38° NE 13:59:44 10° NNW
DELTA 2 R/B (1) 4.1 13:52:54 12° WNW 13:57:58 50° NNE 14:03:22 10° E
Meteor 1-31 Rocket 4.4 13:57:28 10° NNW 13:59:45 15° WNW 14:02:03 10° WSW
Cosmos 2228 Rocket 3.2 13:55:19 10° N 13:59:51 88° E 14:04:25 10° S
SL-27 R/B 3.8 14:01:36 10° NW 14:04:18 21° W 14:06:58 10° SSW
Meteor 1-27 Rocket 4.2 13:59:45 10° NNW 14:05:08 43° W 14:10:36 10° SSW
CZ-4B R/B 3.5 14:02:31 10° SE 14:05:22 27° ENE 14:08:10 10° NNE
Sich 1 3.0 14:01:52 10° SSW 14:06:04 58° W 14:10:17 10° N
SL-4 R/B 3.2 14:04:17 10° W 14:06:52 19° NNW 14:09:32 10° NNE
CZ-2D R/B 4.1 14:07:32 10° NNE 14:11:16 56° E 14:14:58 10° S
Cosmos 44 3.7 14:07:19 10° SSW 14:12:42 83° ESE 14:18:01 10° NNE
Cosmos 1939 Rocket 2.9 14:09:07 10° N 14:12:53 52° WNW 14:16:37 10° SSW
NOAA 12 4.3 14:11:37 10° N 14:16:39 48° WNW 14:21:38 10° SW
Cosmos 2297 Rocket 3.4 14:12:17 10° N 14:17:41 44° ENE 14:23:03 10° SE
